Weather History for MRLB - September, 2012

Change the Weather History Date:

Friday, September 28, 2012

  Actual Average Record
Temperature  
Mean Temperature 80 °F -  
Max Temperature 92 °F 84 °F 93 °F (1998)
Min Temperature 69 °F 73 °F 69 °F (2012)
Cooling Degree Days 16    
Growing Degree Days 30 (Base 50)    
Moisture  
Dew Point 73 °F    
Average Humidity 81    
Maximum Humidity 100    
Minimum Humidity 52    
Precipitation  
Precipitation 1.65 in - - ()
Sea Level Pressure  
Sea Level Pressure 29.86 in    
Wind  
Wind Speed 3 mph ()    
Max Wind Speed 15 mph    
Max Gust Speed -    
Visibility 6.8 miles    
Events Rain , Thunderstorm    
Averages and records for this station are not official NWS values.
T = Trace of Precipitation, MM = Missing Value Source: Averaged Metar Reports

Daily Weather History Graph

Daily Weather History Graph

Search for Another Location

Airport or City:

Trip Planner

Search our weather history database for the weather conditions in past years. The results will help you decide how hot, cold, wet, or windy it might be!

Date:

Astronomy

Sep. 28, 2012 Rise Set
Actual Time 5:31 AM CST 5:34 PM CST
Civil Twilight 5:09 AM CST 5:55 PM CST
Nautical Twilight 4:45 AM CST 6:19 PM CST
Astronomical Twilight 4:21 AM CST 6:43 PM CST
Moon 4:33 PM CST 4:09 AM CST
Length of Visible Light 12h 45m
Length of Day
12h 03m
Waxing Gibbous, 98% of the Moon is Illuminated
Sep 28
Waxing Gibbous
Sep 29
Full
Oct 8
Last Quarter
Oct 15
New
Oct 21
First Quarter

Hourly Weather History & Observations

Time (CST) Temp. Heat Index Dew Point Humidity Pressure Visibility Wind Dir Wind Speed Gust Speed Precip Events Conditions
6:00 AM 71 °F - 69 °F 93% 29.90 in 12 mi SSE 3.5 mph - -   Clear
6:00 AM 71.6 °F - 69.8 °F 94% 29.89 in - SSE 3.5 mph - N/A   Clear
7:00 AM 75.2 °F - 71.6 °F 89% 29.90 in 6.2 mi SSE 3.5 mph - N/A   Scattered Clouds
8:00 AM 78.8 °F - 73.4 °F 83% 29.93 in 6.2 mi East 3.5 mph - N/A   Scattered Clouds
9:00 AM 82 °F - 73 °F 67% 29.93 in 12 mi Calm Calm - -   Scattered Clouds
9:00 AM 82.4 °F 88.2 °F 73.4 °F 74% 29.92 in 6.2 mi Calm Calm - N/A   Mostly Cloudy
10:00 AM 84.2 °F 90.9 °F 73.4 °F 70% 29.90 in 6.2 mi SE 3.5 mph - N/A   Scattered Clouds
11:00 AM 82.4 °F 89.5 °F 75.2 °F 79% 29.89 in 6.2 mi NW 4.6 mph - N/A   Scattered Clouds
12:00 PM 86 °F - 75 °F 64% 29.87 in 12 mi SSW 4.6 mph - -   Partly Cloudy
12:00 PM 86.0 °F 95.1 °F 75.2 °F 70% 29.86 in 6.2 mi SSW 4.6 mph - N/A   Mostly Cloudy
1:00 PM 87.8 °F 95.6 °F 73.4 °F 62% 29.83 in 6.2 mi South 4.6 mph - N/A   Mostly Cloudy
2:00 PM 89.6 °F 98.2 °F 73.4 °F 59% 29.81 in 6.2 mi SW 2.3 mph - N/A   Mostly Cloudy
3:00 PM 88 °F - 73 °F 52% 29.82 in 11 mi South 4.6 mph - -   Overcast
3:00 PM 87.8 °F 95.6 °F 73.4 °F 62% 29.80 in 6.2 mi South 4.6 mph - N/A   Scattered Clouds
3:25 PM 86.0 °F 95.1 °F 75.2 °F 70% 29.80 in 6.2 mi WSW 3.5 mph - N/A Rain Rain
3:40 PM 78.8 °F - 75.2 °F 89% 29.80 in 1.2 mi NW 8.1 mph - N/A Rain Rain Showers
3:45 PM 77.0 °F - 75.2 °F 94% 29.81 in 0.6 mi East 9.2 mph - N/A Rain , Thunderstorm Rain Showers
4:00 PM 75.2 °F - 73.4 °F 94% 29.82 in 3.1 mi East 12.7 mph - N/A Rain , Thunderstorm Rain Showers
4:10 PM 71.6 °F - 71.6 °F 100% 29.84 in 6.2 mi East 15.0 mph - N/A Rain , Thunderstorm Light Thunderstorms and Rain
5:00 PM 73.4 °F - 71.6 °F 94% 29.84 in 6.2 mi South 4.6 mph - N/A Rain Light Rain
6:00 PM 74 °F - 72 °F 94% 29.86 in 12 mi Calm Calm - -   Partly Cloudy
6:00 PM 73.4 °F - 73.4 °F 100% 29.85 in 6.2 mi Calm Calm - N/A   Mostly Cloudy
7:00 PM 73.4 °F - 73.4 °F 100% 29.85 in 6.2 mi WSW 2.3 mph - N/A   Mostly Cloudy
8:00 PM 73.4 °F - 73.4 °F 100% 29.85 in 6.2 mi Calm Calm - N/A   Mostly Cloudy